This demonstration page uses our WeatherBlox Daily Observations layout. Learn more.

Left ArrowRight Arrow

34.16533, -84.80231

Hourly Observations for March 19, 2023

Temp ( °F °C ) Dew Point ( °F °C ) Humidity (%) Winds ( mph kmh ) Pressure ( in mb ) Visibility ( mi km ) Precip ( " mm )
12:15 am 00:15 Clear 41 5 19 -7 41 41 VRB 7 11 30.20 1023 10 16 0.00 0.00
12:35 am 00:35 Clear 41 5 21 -6 45 45 W 8 13 30.20 1023 10 16 0.00 0.00
12:55 am 00:55 Clear 41 5 19 -7 41 41 W 8 13 30.20 1023 10 16 0.00 0.00
1:15 am 01:15 Clear 41 5 18 -8 38 38 W 8 13 30.20 1023 10 16 0.00 0.00
1:35 am 01:35 Clear 39 4 18 -8 41 41 NW 9 15 30.21 1023 10 16 0.00 0.00
1:55 am 01:55 Clear 39 4 18 -8 41 41 WNW 6 9 30.22 1023 10 16 0.00 0.00
2:15 am 02:15 Clear 39 4 18 -8 41 41 NW 12 19 30.23 1024 10 16 0.00 0.00
2:35 am 02:35 Clear 37 3 18 -8 44 44 VRB 6 9 30.24 1024 10 16 0.00 0.00
2:55 am 02:55 Clear 37 3 18 -8 44 44 NW 10 17 30.26 1025 10 16 0.00 0.00
3:15 am 03:15 Clear 36 2 18 -8 47 47 WNW 8 13 30.26 1025 10 16 0.00 0.00
3:35 am 03:35 Clear 36 2 18 -8 47 47 VRB 6 9 30.26 1025 10 16 0.00 0.00
3:55 am 03:55 Clear 34 1 18 -8 51 51 VRB 7 11 30.27 1025 10 16 0.00 0.00
4:15 am 04:15 Mostly Clear 34 1 18 -8 51 51 undefined N/A 30.26 1025 10 16 0.00 0.00
4:35 am 04:35 Clear 34 1 18 -8 51 51 W 8 13 30.26 1025 10 16 0.00 0.00
4:55 am 04:55 Clear 32 0 16 -9 51 51 VRB 5 7 30.27 1025 10 16 0.00 0.00
5:15 am 05:15 Clear 32 0 16 -9 51 51 VRB 7 11 30.27 1025 10 16 0.00 0.00
5:35 am 05:35 Clear 32 0 16 -9 51 51 VRB 7 11 30.27 1025 10 16 0.00 0.00
5:55 am 05:55 Clear 30 -1 16 -9 54 54 VRB 5 7 30.28 1025 10 16 0.00 0.00
6:15 am 06:15 Clear 30 -1 16 -9 54 54 VRB 6 9 30.28 1025 10 16 0.00 0.00
6:35 am 06:35 Clear 30 -1 14 -10 50 50 VRB 5 7 30.29 1026 10 16 0.00 0.00
6:55 am 06:55 Clear 30 -1 14 -10 50 50 WSW 5 7 30.29 1026 10 16 0.00 0.00
7:15 am 07:15 Clear 28 -2 14 -10 54 54 VRB 5 7 30.31 1026 10 16 0.00 0.00
7:35 am 07:35 Clear 28 -2 14 -10 54 54 VRB 3 6 30.31 1026 10 16 0.00 0.00
7:55 am 07:55 Sunny 28 -2 14 -10 54 54 Calm 30.31 1027 10 16 0.00 0.00
8:15 am 08:15 Sunny 28 -2 14 -10 54 54 VRB 5 7 30.33 1027 10 16 0.00 0.00
8:35 am 08:35 Sunny 28 -2 12 -11 50 50 VRB 5 7 30.33 1027 10 16 0.00 0.00
8:55 am 08:55 Sunny 30 -1 14 -10 50 50 VRB 3 6 30.34 1028 10 16 0.00 0.00
9:15 am 09:15 Sunny 30 -1 12 -11 46 46 NW 9 15 30.35 1028 10 16 0.00 0.00
9:35 am 09:35 Sunny 30 -1 12 -11 46 46 VRB 7 11 30.35 1028 10 16 0.00 0.00
9:55 am 09:55 Sunny 32 0 12 -11 43 43 VRB 6 9 30.35 1028 10 16 0.00 0.00
10:15 am 10:15 Sunny 32 0 10 -12 40 40 N 8 13 30.35 1028 10 16 0.00 0.00
10:35 am 10:35 Sunny 32 0 12 -11 43 43 N 8 13 30.35 1028 10 16 0.00 0.00
10:55 am 10:55 Sunny 34 1 12 -11 40 40 VRB 7 11 30.36 1028 10 16 0.00 0.00
11:15 am 11:15 Sunny 34 1 12 -11 40 40 VRB 5 7 30.36 1028 10 16 0.00 0.00
11:35 am 11:35 Sunny 34 1 12 -11 40 40 NW 8 13 30.37 1028 10 16 0.00 0.00
11:55 am 11:55 Sunny 36 2 12 -11 37 37 NW 8 13 30.37 1029 10 16 0.00 0.00
12:15 pm 12:15 Sunny 37 3 12 -11 35 35 VRB 5 7 30.37 1028 10 16 0.00 0.00
12:35 pm 12:35 Sunny 37 3 12 -11 35 35 W 8 13 30.37 1028 10 16 0.00 0.00
12:55 pm 12:55 Sunny 37 3 12 -11 35 35 W 13 20 30.36 1028 10 16 0.00 0.00
1:15 pm 13:15 Sunny 37 3 12 -11 35 35 WNW 10 17 30.36 1028 10 16 0.00 0.00
1:35 pm 13:35 Sunny 37 3 12 -11 35 35 N 9 15 30.36 1028 10 16 0.00 0.00
1:55 pm 13:55 Sunny 39 4 12 -11 32 32 WNW 10 17 30.34 1027 10 16 0.00 0.00
2:15 pm 14:15 Sunny 39 4 12 -11 32 32 VRB 7 11 30.33 1027 10 16 0.00 0.00
2:35 pm 14:35 Sunny 39 4 12 -11 32 32 VRB 5 7 30.33 1027 10 16 0.00 0.00
2:55 pm 14:55 Sunny 39 4 12 -11 32 32 WNW 10 17 30.31 1026 10 16 0.00 0.00
3:15 pm 15:15 Sunny 41 5 12 -11 30 30 NW 10 17 30.30 1026 10 16 0.00 0.00
3:35 pm 15:35 Sunny 41 5 12 -11 30 30 W 9 15 30.29 1026 10 16 0.00 0.00
3:55 pm 15:55 Sunny 43 6 12 -11 28 28 W 14 22 30.29 1026 10 16 0.00 0.00
4:15 pm 16:15 Sunny 43 6 12 -11 28 28 WNW 13 20 30.28 1025 10 16 0.00 0.00
4:35 pm 16:35 Sunny 43 6 12 -11 28 28 VRB 6 9 30.28 1025 10 16 0.00 0.00
4:55 pm 16:55 Sunny 43 6 14 -10 31 31 NNE 7 11 30.28 1025 10 16 0.00 0.00
5:15 pm 17:15 Sunny 43 6 12 -11 28 28 VRB 5 7 30.28 1025 10 16 0.00 0.00
5:35 pm 17:35 Sunny 43 6 14 -10 31 31 NNE 10 17 30.28 1025 10 16 0.00 0.00
5:55 pm 17:55 Sunny 43 6 12 -11 28 28 NW 9 15 30.28 1025 10 16 0.00 0.00
6:15 pm 18:15 Sunny 43 6 12 -11 28 28 NW 6 9 30.28 1025 10 16 0.00 0.00
6:35 pm 18:35 Sunny 41 5 12 -11 30 30 NNE 9 15 30.28 1026 10 16 0.00 0.00
6:55 pm 18:55 Sunny 41 5 12 -11 30 30 NW 7 11 30.29 1026 10 16 0.00 0.00
7:15 pm 19:15 Sunny 41 5 12 -11 30 30 VRB 7 11 30.29 1026 10 16 0.00 0.00
7:35 pm 19:35 Sunny 39 4 12 -11 32 32 NNW 7 11 30.31 1026 10 16 0.00 0.00
7:55 pm 19:55 Clear 37 3 12 -11 35 35 NNE 8 13 30.31 1026 10 16 0.00 0.00
8:15 pm 20:15 Clear 37 3 12 -11 35 35 VRB 3 6 30.31 1026 10 16 0.00 0.00
8:35 pm 20:35 Mostly Clear 37 3 12 -11 35 35 VRB 3 6 30.32 1027 10 16 0.00 0.00
8:55 pm 20:55 Mostly Clear 36 2 14 -10 40 40 Calm 30.32 1027 10 16 0.00 0.00
9:15 pm 21:15 Clear 36 2 14 -10 40 40 VRB 5 7 30.32 1027 10 16 0.00 0.00
9:35 pm 21:35 Clear 36 2 14 -10 40 40 VRB 5 7 30.33 1027 10 16 0.00 0.00
9:55 pm 21:55 Mostly Clear 34 1 14 -10 44 44 VRB 5 7 30.35 1028 10 16 0.00 0.00
10:15 pm 22:15 Clear 34 1 14 -10 44 44 VRB 6 9 30.35 1028 10 16 0.00 0.00
10:35 pm 22:35 Clear 34 1 14 -10 44 44 W 6 9 30.36 1028 10 16 0.00 0.00
10:55 pm 22:55 Clear 34 1 14 -10 44 44 VRB 7 11 30.36 1028 10 16 0.00 0.00
11:15 pm 23:15 Clear 32 0 16 -9 51 51 W 7 11 30.37 1028 10 16 0.00 0.00
11:35 pm 23:35 Clear 32 0 14 -10 47 47 W 7 11 30.37 1028 10 16 0.00 0.00
11:55 pm 23:55 Clear 32 0 14 -10 47 47 W 7 11 30.37 1028 10 16 0.00 0.00

Powered by Vaisala Xweather